EHI
4 6 6 7 7 8 8 5 1 1 2 3 4 5 5 3 1 3 4 2 0 0 0 0 0 0 0 0 0 0 0 0 0 0 0 0 0 0
5 5 5 5 6 6 6 4 2 1 2 4 4 5 5 3 2 3 3 1 0 0 0 0 0 0 0 0 0 0 0 0 0 0 0 0 0 0
6 5 4 3 3 3 2 2 3 3 2 3 5 5 4 3 3 3 1 0 0 0 0 0 0 0 0 0 0 0 0 0 0 0 0 0 0 0
8 6 4 3 3 2 1 1 3 3 2 3 5 5 4 3 2 2 1 0 0 0 0 0 0 0 0 0 0 0 0 0 0 0 0 0 0 0
8 7 5 4 4 4 3 2 2 3 3 3 4 5 4 3 3 2 1 1 0 0 0 0 0 0 0 0 0 0 0 0 0 0 0 0 0 0
6 6 6 5 4 4 4 3 3 3 3 3 3 4 3 3 3 3 3 2 1 0 0 0 0 0 0 0 0 0 0 0 0 0 0 0 0 0
5 5 5 4 3 3 3 4 3 3 3 3 3 3 3 3 3 3 3 2 1 0 0 0 0 0 0 0 0 0 0 0 0 0 0 0 0 0
5 5 4 3 2 3 3 3 3 3 3 3 3 3 3 3 3 3 3 2 0 0 0 0 0 0 0 0 0 0 0 0 0 0 0 0 0 0
6 6 5 3 2 3 3 3 3 3 3 3 3 3 3 3 3 3 3 2 1 1 0 0 0 0 0 0 0 0 0 0 0 0 0 0 0 0
6 6 6 5 3 3 3 3 3 3 3 3 3 3 3 3 3 3 3 3 3 2 1 0 0 0 0 0 0 0 0 0 0 0 0 0 0 0
7 7 6 6 4 3 3 3 3 3 3 3 3 3 3 3 3 3 3 3 3 3 2 1 0 0 0 0 0 0 0 0 0 0 0 0 0 0
8 7 7 5 3 2 3 3 3 3 3 3 3 3 3 3 2 3 3 3 3 3 3 2 1 0 0 0 0 0 0 0 0 0 0 0 0 0
9 8 7 4 2 1 2 3 3 3 3 3 3 3 3 3 3 3 3 3 3 3 3 3 2 0 0 0 0 0 0 0 0 0 0 0 0 0
9 8 6 2 0 0 0 1 1 1 3 3 3 3 3 3 3 3 3 3 3 3 3 3 1 0 0 0 0 0 0 0 0 0 0 0 0 0
6 6 4 1 0 0 0 0 0 1 2 2 3 3 3 3 3 3 3 3 3 3 3 3 1 0 0 0 0 0 0 0 0 0 0 0 0 0
2 3 2 1 0 0 0 0 0 0 1 1 1 3 3 3 3 3 3 3 3 3 3 3 2 1 0 0 0 0 0 0 0 0 0 0 0 0
0 1 1 0 0 0 0 0 0 0 0 0 1 2 3 3 3 3 3 3 3 3 3 3 3 2 1 0 0 0 0 0 0 0 0 0 0 0
0 0 0 0 0 0 0 0 0 0 0 0 0 1 2 3 3 3 3 3 3 3 3 3 3 3 1 0 0 0 0 0 0 0 0 0 0 0
0 0 0 0 0 0 0 0 0 0 1 1 1 1 2 2 3 3 3 3 3 3 3 3 3 3 2 1 0 0 0 0 0 0 0 0 0 0
0 0 0 0 0 0 0 1 1 1 2 2 2 2 1 1 2 3 3 3 3 3 3 3 3 3 3 2 1 0 0 0 0 0 0 0 0 0
0 0 0 0 0 0 1 2 2 2 3 3 2 2 1 2 3 3 3 3 3 3 3 3 3 3 3 3 1 0 0 0 0 0 0 0 0 0
1 1 1 1 1 1 2 2 2 2 3 2 2 2 3 3 3 3 3 3 3 2 2 2 2 2 2 2 1 0 0 0 0 0 0 0 0 0
2 2 2 2 2 2 1 1 1 2 2 1 1 2 3 3 3 3 3 3 2 1 1 1 1 1 1 1 1 0 0 0 0 0 0 0 0 0
Wind_Speed
2 2 1 1 1 1 1 2 3 3 2 2 1 2 3 3 5 5 5 10 10 10 10 10 10 10 11 10 11 11 10 10 10 9 9 9 9 8
1 2 2 1 1 0 1 1 2 3 3 2 2 2 3 4 7 5 6 10 10 9 9 10 10 10 10 10 10 10 10 10 10 10 9 9 9 9
3 3 3 3 2 1 2 2 3 4 5 3 2 2 2 3 4 4 5 4 5 8 9 10 10 11 11 10 10 10 10 10 10 10 10 10 10 10
3 3 3 3 3 2 2 2 3 4 5 6 3 2 2 3 3 4 4 5 5 9 10 10 10 10 10 10 10 10 10 10 9 10 10 10 10 10
4 4 3 3 3 2 2 2 2 4 4 5 4 2 2 2 3 3 4 4 6 8 9 9 9 10 9 9 9 9 8 8 8 9 9 9 9 9
4 4 4 3 3 2 2 2 3 3 4 4 4 3 3 2 2 2 3 2 3 5 6 7 8 9 8 8 8 7 7 6 7 7 7 8 8 8
4 4 5 6 7 4 3 2 2 2 3 3 4 3 3 2 2 2 3 3 2 3 4 4 4 3 4 5 6 6 5 5 5 5 5 6 6 6
3 2 4 5 5 6 7 6 4 3 3 3 3 4 3 2 1 2 2 2 2 2 3 3 4 4 3 3 5 6 5 4 4 4 3 3 3 4
2 2 3 4 4 3 4 5 5 5 4 3 3 3 3 3 2 2 2 2 1 2 2 2 3 3 3 5 9 8 6 5 4 3 3 2 1 1
3 3 3 3 4 3 2 4 4 4 3 2 3 2 3 1 1 2 3 2 2 1 2 2 2 3 4 4 10 9 8 6 5 5 4 3 3 2
3 4 3 4 5 5 3 3 3 3 4 5 5 4 4 3 1 1 1 2 2 1 1 1 1 2 2 3 6 11 9 8 7 6 5 4 4 4
3 3 5 4 5 5 2 2 2 2 2 3 3 3 3 3 2 2 1 1 1 1 1 1 1 1 1 2 4 5 6 8 9 7 7 6 4 3
3 2 2 3 3 3 2 1 1 1 1 2 2 3 3 2 2 2 1 1 0 0 1 1 1 1 1 1 2 4 5 4 5 5 7 8 7 5
1 2 3 4 2 0 0 0 0 1 1 1 2 2 2 2 2 2 2 2 2 2 2 2 1 1 1 1 1 3 4 4 4 4 4 6 7 8
2 4 4 5 3 2 3 3 2 2 2 2 2 2 2 3 2 2 2 2 2 3 3 2 2 1 1 2 1 2 2 3 3 3 3 3 4 4
2 3 4 5 4 2 2 3 3 3 3 2 2 2 2 2 2 2 2 2 2 2 2 3 3 3 2 2 2 2 2 2 2 3 3 2 3 3
2 2 3 3 3 3 3 3 3 2 2 2 1 1 2 2 2 2 2 2 2 2 2 2 2 3 3 2 2 2 2 2 2 3 2 2 3 3
3 3 3 3 3 3 3 3 3 3 2 2 2 2 2 2 2 2 2 2 2 2 2 2 1 1 1 2 2 2 2 2 2 2 2 3 3 2
4 4 4 3 3 3 3 3 3 3 2 2 2 2 2 2 2 2 2 2 2 2 2 2 2 2 2 3 3 4 3 2 2 2 3 3 3 3
5 4 4 3 3 3 3 3 2 2 2 2 2 2 2 2 2 2 2 3 3 3 2 2 2 3 3 3 3 3 5 3 2 3 3 2 1 1
5 5 4 3 3 3 2 2 2 2 2 2 2 2 2 2 2 2 2 3 3 2 2 3 3 4 3 2 2 2 3 6 5 3 3 2 2 2
4 4 3 3 2 2 2 2 2 2 2 2 2 2 2 2 2 3 3 2 2 2 2 2 2 2 2 3 3 3 3 4 4 5 5 4 3 3
4 3 3 2 2 2 2 2 2 2 2 2 2 2 2 2 3 3 2 1 1 2 2 2 2 2 3 3 3 2 3 3 3 3 3 7 9 9
Wind_Direction
22 34 29 12 66 112 144 155 146 141 127 127 109 87 95 99 106 99 91 90 90 88 85 83 81 77 74 72 70 68 67 66 67 67 64 60 56 56
39 48 33 24 43 67 137 123 108 128 125 119 104 110 112 121 114 108 100 99 96 96 94 90 86 82 79 75 73 70 69 69 68 65 64 62 60 59
34 42 36 28 24 31 54 86 102 113 120 114 106 107 89 103 117 119 120 107 101 101 99 94 89 86 82 79 75 73 70 69 67 65 63 62 61 59
43 39 35 42 39 37 54 77 101 117 132 133 136 136 125 128 139 147 133 126 117 112 110 106 101 94 88 82 77 73 70 67 64 63 62 60 59 58
46 42 38 40 39 45 65 81 98 114 126 135 142 140 143 148 142 132 127 126 129 129 123 115 111 104 96 91 86 79 73 69 66 63 62 60 58 58
56 51 44 40 36 47 74 83 101 111 126 137 144 146 144 155 145 148 132 133 131 138 130 130 126 116 110 105 99 91 83 78 73 68 63 59 58 59
69 66 67 69 60 54 66 70 102 122 131 140 141 132 133 145 159 157 140 134 129 131 139 145 144 136 132 123 115 110 102 94 85 77 71 67 63 62
75 82 97 81 73 78 82 80 84 106 127 133 134 144 148 152 151 150 148 148 153 157 150 160 158 157 156 143 145 137 130 123 114 104 95 83 73 68
67 48 68 75 71 77 93 96 77 73 98 130 139 150 151 159 163 157 142 160 163 176 161 160 155 152 150 148 158 161 163 161 158 156 153 151 135 114
68 63 78 64 39 35 97 94 88 63 67 111 129 132 131 130 153 155 158 155 166 172 150 168 169 159 149 157 176 178 181 186 188 192 196 199 201 208
85 61 71 73 40 33 81 94 95 95 80 92 110 128 140 142 120 119 151 173 180 171 163 177 159 141 152 167 184 189 192 199 206 210 215 223 224 215
113 97 80 77 58 34 59 98 116 115 108 106 114 151 174 184 195 188 179 192 187 161 167 175 174 145 161 170 172 183 201 214 219 225 230 236 236 219
145 133 119 109 85 35 18 53 137 147 173 167 171 175 181 184 190 188 181 173 187 165 159 167 192 185 168 163 174 185 191 191 198 217 225 231 230 219
113 117 132 149 137 48 348 238 229 279 216 199 186 184 186 189 192 185 187 192 200 195 182 166 199 197 204 198 197 188 195 192 185 195 199 212 223 227
75 116 151 179 188 207 217 229 230 241 236 229 213 196 187 179 172 176 195 207 223 224 192 181 201 222 221 227 210 185 193 200 189 189 190 194 201 201
152 151 181 208 237 240 216 216 228 241 241 243 227 192 171 169 185 188 198 205 212 221 212 194 201 214 230 240 207 204 195 193 185 181 187 209 210 198
164 176 197 204 206 210 213 217 226 235 244 247 239 205 182 185 193 187 193 216 220 209 202 216 215 215 218 226 230 215 199 206 196 186 189 218 222 197
186 208 211 213 214 210 215 216 216 225 233 234 231 224 211 207 202 189 188 214 231 219 199 197 200 214 248 256 228 236 222 210 205 193 199 215 225 208
207 224 219 215 220 226 223 221 215 214 219 222 227 232 226 218 209 202 206 218 229 224 211 196 194 211 237 249 245 223 224 221 205 207 211 215 219 211
224 229 230 219 218 228 230 224 216 204 203 218 229 241 238 232 229 214 213 226 230 227 218 207 203 211 230 242 239 230 216 209 207 216 224 228 233 209
225 225 229 232 225 220 221 218 219 211 209 222 223 229 236 236 236 232 231 233 236 234 227 224 219 213 217 224 245 233 219 212 210 207 213 221 230 225
231 224 222 230 234 230 216 211 215 210 207 223 235 235 231 237 244 242 233 222 219 240 249 235 214 214 223 231 244 243 222 208 224 237 239 221 209 220
235 230 219 216 220 216 215 217 219 216 211 221 230 238 235 229 238 242 240 227 224 248 258 244 229 234 239 234 245 254 246 218 208 210 235 235 230 232